2019-025C

Last updated on Sat May 11 2019 00:02:07 GMT+0000 (Coordinated Universal Time)

1 44224U 19025C 19130.55739073 .42319615 12704-4 49549-3 0 9999 2 44224 51.6328 185.8249 0015314 75.0423 286.3853 16.48763339 1012

Satellite not in orbit